• In Belarus
  • List of Countries
  • For 7 days
  • Water Temperature
  • Satellite Maps
  • Weather Map
  • Weather Widgets
  • user-avatar
    Login

    Hourly Weather Guarda

    Today, 21 August, Tuesday

    Time Temperature Precipitation Wind Pressure Humidity
    00:00 +23°C° 0 mm 2 mps 689 mmHg 30%
    01:00 +21°C° 0 mm 2 mps 689 mmHg 32%
    02:00 +21°C° 0 mm 2 mps 689 mmHg 34%
    03:00 +20°C° 0 mm 2 mps 688 mmHg 36%
    04:00 +19°C° 0 mm 2 mps 689 mmHg 39%
    05:00 +19°C° 0 mm 2 mps 689 mmHg 42%
    06:00 +18°C° 0 mm 2 mps 688 mmHg 45%
    07:00 +21°C° 0 mm 2 mps 689 mmHg 41%
    08:00 +24°C° 0 mm 2 mps 690 mmHg 37%
    09:00 +27°C° 0 mm 2 mps 690 mmHg 32%
    10:00 +29°C° 0 mm 2 mps 690 mmHg 28%
    11:00 +31°C° 0 mm 1 mps 691 mmHg 24%
    12:00 +34°C° 0 mm 1 mps 691 mmHg 20%
    13:00 +34°C° 0 mm 1 mps 691 mmHg 18%
    14:00 +35°C° 0 mm 2 mps 690 mmHg 17%
    15:00 +36°C° 0 mm 2 mps 690 mmHg 16%
    16:00 +35°C° 0 mm 2 mps 690 mmHg 17%
    17:00 +34°C° 0 mm 2 mps 689 mmHg 19%
    18:00 +32°C° 0 mm 2 mps 689 mmHg 20%
    19:00 +30°C° 0 mm 2 mps 689 mmHg 24%
    20:00 +27°C° 0 mm 1 mps 689 mmHg 29%
    21:00 +25°C° 0 mm 1 mps 688 mmHg 33%
    22:00 +24°C° 0 mm 1 mps 688 mmHg 35%
    23:00 +24°C° 0 mm 1 mps 688 mmHg 37%

    Tomorrow, 22 August, Wednesday

    Time Temperature Precipitation Wind Pressure Humidity
    00:00 +23°C° 0 mm 1 mps 688 mmHg 38%
    01:00 +22°C° 0 mm 1 mps 688 mmHg 39%
    02:00 +22°C° 0 mm 1 mps 688 mmHg 40%
    03:00 +19°C° 0 mm 0 mps 687 mmHg 41%
    04:00 +21°C° 0 mm 1 mps 688 mmHg 42%
    05:00 +21°C° 0 mm 1 mps 688 mmHg 42%
    06:00 +21°C° 0 mm 1 mps 688 mmHg 43%
    07:00 +23°C° 0 mm 1 mps 688 mmHg 38%
    08:00 +26°C° 0 mm 1 mps 689 mmHg 33%
    09:00 +29°C° 0 mm 1 mps 690 mmHg 28%
    10:00 +31°C° 0 mm 1 mps 690 mmHg 25%
    11:00 +33°C° 0 mm 1 mps 691 mmHg 22%
    12:00 +34°C° 0 mm 1 mps 691 mmHg 19%
    13:00 +35°C° 0 mm 2 mps 691 mmHg 19%
    14:00 +35°C° 0 mm 2 mps 690 mmHg 19%
    15:00 +35°C° 0 mm 2 mps 690 mmHg 19%
    16:00 +34°C° 0 mm 2 mps 690 mmHg 21%
    17:00 +33°C° 0 mm 3 mps 690 mmHg 24%
    18:00 +31°C° 0 mm 3 mps 689 mmHg 27%
    19:00 +28°C° 0.1 mm 3 mps 689 mmHg 33%
    20:00 +26°C° 0.1 mm 2 mps 689 mmHg 39%
    21:00 +24°C° 0.1 mm 2 mps 689 mmHg 45%
    22:00 +23°C° 0 mm 2 mps 689 mmHg 46%
    23:00 +23°C° 0 mm 1 mps 689 mmHg 46%

    Day after tomorrow, 23 August, Thursday

    Time Temperature Precipitation Wind Pressure Humidity
    00:00 +23°C° 0 mm 1 mps 689 mmHg 47%
    01:00 +22°C° 0 mm 1 mps 689 mmHg 48%
    02:00 +22°C° 0 mm 1 mps 689 mmHg 49%
    03:00 +21°C° 0 mm 1 mps 688 mmHg 50%
    04:00 +21°C° 0 mm 1 mps 688 mmHg 51%
    05:00 +20°C° 0 mm 1 mps 688 mmHg 53%
    06:00 +20°C° 0 mm 1 mps 688 mmHg 54%
    07:00 +23°C° 0 mm 1 mps 689 mmHg 48%
    08:00 +26°C° 0 mm 1 mps 690 mmHg 42%
    09:00 +28°C° 0 mm 1 mps 691 mmHg 35%
    10:00 +30°C° 0 mm 1 mps 691 mmHg 31%
    11:00 +32°C° 0 mm 1 mps 691 mmHg 27%
    12:00 +34°C° 0 mm 1 mps 691 mmHg 23%
    13:00 +35°C° 0 mm 2 mps 691 mmHg 23%
    14:00 +35°C° 0 mm 2 mps 690 mmHg 22%
    15:00 +34°C° 0 mm 2 mps 690 mmHg 22%
    16:00 +32°C° 0.1 mm 2 mps 690 mmHg 24%
    17:00 +31°C° 0.1 mm 3 mps 690 mmHg 27%
    18:00 +30°C° 0.1 mm 3 mps 689 mmHg 29%
    19:00 +28°C° 0.1 mm 2 mps 689 mmHg 35%
    20:00 +26°C° 0.1 mm 2 mps 689 mmHg 41%
    21:00 +24°C° 0.1 mm 2 mps 689 mmHg 46%
    22:00 +23°C° 0 mm 2 mps 689 mmHg 48%
    23:00 +23°C° 0 mm 2 mps 689 mmHg 50%

    24 August, Friday

    Time Temperature Precipitation Wind Pressure Humidity
    00:00 +22°C° 0 mm 1 mps 689 mmHg 52%
    01:00 +22°C° 0 mm 1 mps 689 mmHg 54%
    02:00 +20°C° 0 mm 2 mps 689 mmHg 55%
    03:00 +20°C° 0 mm 2 mps 689 mmHg 57%
    04:00 +19°C° 0 mm 2 mps 689 mmHg 62%
    05:00 +19°C° 0 mm 2 mps 688 mmHg 67%
    06:00 +18°C° 0 mm 2 mps 688 mmHg 71%
    07:00 +20°C° 0 mm 2 mps 689 mmHg 64%
    08:00 +22°C° 0 mm 3 mps 689 mmHg 57%
    09:00 +25°C° 0 mm 3 mps 690 mmHg 50%
    10:00 +27°C° 0 mm 2 mps 690 mmHg 43%
    11:00 +30°C° 0 mm 2 mps 690 mmHg 36%
    12:00 +32°C° 0 mm 2 mps 691 mmHg 28%
    13:00 +32°C° 0 mm 2 mps 690 mmHg 26%
    14:00 +34°C° 0 mm 2 mps 690 mmHg 24%
    15:00 +35°C° 0 mm 3 mps 690 mmHg 22%
    16:00 +34°C° 0 mm 3 mps 689 mmHg 24%
    17:00 +33°C° 0 mm 3 mps 689 mmHg 25%
    18:00 +31°C° 0 mm 3 mps 689 mmHg 27%
    19:00 +29°C° 0 mm 2 mps 689 mmHg 33%
    20:00 +26°C° 0 mm 2 mps 689 mmHg 38%
    21:00 +24°C° 0 mm 1 mps 689 mmHg 44%
    22:00 +23°C° 0 mm 2 mps 688 mmHg 47%
    23:00 +23°C° 0 mm 2 mps 688 mmHg 49%

    25 August, Saturday

    Time Temperature Precipitation Wind Pressure Humidity
    00:00 +21°C° 0 mm 2 mps 688 mmHg 52%
    01:00 +20°C° 0 mm 2 mps 688 mmHg 55%
    02:00 +19°C° 0 mm 2 mps 688 mmHg 58%
    03:00 +18°C° 0 mm 3 mps 687 mmHg 60%
    04:00 +18°C° 0 mm 3 mps 687 mmHg 63%
    05:00 +17°C° 0 mm 3 mps 687 mmHg 65%
    06:00 +16°C° 0 mm 3 mps 687 mmHg 67%
    07:00 +18°C° 0 mm 3 mps 687 mmHg 61%
    08:00 +20°C° 0 mm 3 mps 688 mmHg 55%
    09:00 +22°C° 0 mm 3 mps 688 mmHg 48%
    10:00 +25°C° 0 mm 3 mps 688 mmHg 42%
    11:00 +27°C° 0 mm 3 mps 689 mmHg 36%
    12:00 +29°C° 0 mm 3 mps 689 mmHg 30%
    13:00 +30°C° 0 mm 3 mps 688 mmHg 28%
    14:00 +31°C° 0 mm 3 mps 688 mmHg 25%
    15:00 +33°C° 0 mm 3 mps 688 mmHg 22%
    16:00 +31°C° 0 mm 3 mps 688 mmHg 23%
    17:00 +30°C° 0 mm 3 mps 687 mmHg 24%
    18:00 +30°C° 0 mm 3 mps 687 mmHg 25%
    19:00 +27°C° 0 mm 2 mps 687 mmHg 30%
    20:00 +25°C° 0 mm 2 mps 687 mmHg 35%
    21:00 +23°C° 0 mm 2 mps 687 mmHg 40%
    22:00 +21°C° 0 mm 2 mps 687 mmHg 41%
    23:00 +20°C° 0 mm 2 mps 687 mmHg 43%

    26 August, Sunday

    Time Temperature Precipitation Wind Pressure Humidity
    00:00 +19°C° 0 mm 2 mps 687 mmHg 45%
    01:00 +19°C° 0 mm 2 mps 687 mmHg 46%
    02:00 +18°C° 0 mm 2 mps 686 mmHg 48%
    03:00 +17°C° 0 mm 3 mps 686 mmHg 49%
    04:00 +17°C° 0 mm 3 mps 686 mmHg 52%
    05:00 +16°C° 0 mm 2 mps 686 mmHg 54%
    06:00 +15°C° 0 mm 2 mps 686 mmHg 56%
    07:00 +17°C° 0 mm 2 mps 686 mmHg 50%
    08:00 +20°C° 0 mm 2 mps 687 mmHg 44%
    09:00 +23°C° 0 mm 2 mps 688 mmHg 38%
    10:00 +26°C° 0 mm 2 mps 688 mmHg 33%
    11:00 +29°C° 0 mm 1 mps 688 mmHg 28%
    12:00 +31°C° 0 mm 1 mps 688 mmHg 23%
    13:00 +32°C° 0 mm 1 mps 688 mmHg 21%
    14:00 +33°C° 0 mm 1 mps 688 mmHg 19%
    15:00 +34°C° 0 mm 2 mps 687 mmHg 18%
    16:00 +34°C° 0 mm 2 mps 687 mmHg 19%
    17:00 +32°C° 0 mm 2 mps 687 mmHg 21%
    18:00 +31°C° 0 mm 2 mps 687 mmHg 23%
    19:00 +29°C° 0 mm 2 mps 686 mmHg 27%
    20:00 +27°C° 0 mm 2 mps 686 mmHg 31%
    21:00 +24°C° 0 mm 2 mps 686 mmHg 35%
    22:00 +24°C° 0 mm 2 mps 686 mmHg 36%
    23:00 +23°C° 0 mm 2 mps 686 mmHg 36%
    Show more